Historyczne dane pomiarowe

Dodano dane terminowe – wersja testowa.

Dane z okresu 1951-2019

Wersja bazy: 1.34 [2019-03-16, lista zmian], aktualizacja planowana na 2019-04-15

Dane meteo z obszaru Polski uzyskane na podstawie danych udostępnionych przez Instytut Meteorologii i Gospodarki Wodnej – Państwowy Instytut Badawczy.

 

Wybierz Datę:    

       

TemperaturaWilgotnośćWiatrCiśnienieOpadyŚniegCzas trwania zjawisk
 Stacja t tx tn tng RH VA  wxwx mslp ppp RRR   cm mm wxwxwxwxwxwxwx
1956-11-09 -8.3 -4.6-12.7-17.5 88.5- 4.3 1.3---- 0.0-- 2---------
1956-11-08 -7.5 -2.1-10.4-14.3 81.0- 1.0 3.0---- 0.0-- 4---------
1956-11-07 -2.3 1.2 -5.2 -5.2 87.0- 5.0 6.0---- 0.6-- 3---------
1956-11-06 0.3 3.2 -0.7 -1.2 88.0- 4.3 5.0---- 1.8------------
1956-11-05 0.6 2.1 -7.8-10.2 82.3- 7.3 8.0---- 1.4------------
1956-11-04 -3.6 3.0 -7.2 -8.4 84.0- 1.0 1.0---- 0.0------------
1956-11-03 -1.4 2.5 -4.7 -8.1 84.3- 7.3 1.0---- 0.0------------
1956-11-02 -0.1 3.3 -2.6 -5.9 77.8- 5.3 3.3---- 0.0------------
1956-11-01 -2.1 3.6 -9.3-10.6 65.3- 1.7 1.0---- 0.0------------
1956-10-31 -4.7 1.9 -7.2 -2.4 83.0- 3.3 3.7---- 0.0------------
1956-10-30 3.2 6.8 1.2 3.2 87.3- 8.0 3.0---- 0.0------------
1956-10-29 5.6 10.5 4.0 0.3 82.0- 6.0 4.0---- 0.0------------
1956-10-28 10.1 12.4 7.9 7.4 84.8- 6.7 5.7---- 0.3------------
1956-10-27 8.0 10.6 3.7 0.9 94.5- 5.3 4.3---- 3.2------------
1956-10-26 8.6 17.2 1.6 0.0 86.5- 1.0 1.3---- 0.0------------
1956-10-25 8.2 15.8 0.3 -0.8 85.8- 0.0 1.3---- 0.0------------
1956-10-24 8.5 15.7 4.8 5.3 90.0- 2.7 1.0---- 0.0------------
1956-10-23 7.3 15.0 4.0 1.3 93.0- 7.7 1.0---- 0.0------------
1956-10-22 10.3 17.5 5.4 3.3 91.0- 2.0 2.3---- 0.0------------
1956-10-21 10.7 17.0 7.0 7.8 91.8- 5.0 0.7---- 0.0------------
1956-10-20 10.0 10.8 9.0 8.8 93.3- 8.0 2.0---- 0.7------------
1956-10-19 10.4 13.0 6.8 7.0 77.8- 7.7 3.0---- 0.0------------
1956-10-18 8.1 13.5 -1.7 -4.0 70.3- 5.7 3.3---- 0.2------------
1956-10-17 2.3 10.5 -3.7 -6.4 87.3- 0.3 0.7---- 0.0------------
1956-10-16 2.9 10.3 -0.7 -2.0 89.3- 1.3 1.3---- 0.0------------
1956-10-15 3.9 11.1 0.8 -1.0 86.8- 1.3 3.0---- 0.0------------
1956-10-14 7.4 11.5 4.3 7.8 76.3- 4.3 11.3---- 2.0------------
1956-10-13 9.8 11.1 4.8 3.6 78.3- 8.0 7.0---- 0.0------------
1956-10-12 7.6 11.5 5.3 5.7 84.3- 6.3 6.0---- 0.0------------
1956-10-11 5.9 9.0 0.9 0.2 76.0- 7.3 4.3---- 0.0------------
1956-10-10 4.6 7.8 2.5 2.6 79.8- 6.7 4.0---- 0.0------------
1956-10-09 4.4 10.8 -1.9 -5.0 87.0- 3.7 0.7---- 0.0------------
1956-10-08 3.8 10.4 0.9 -1.1 88.0- 4.0 1.7---- 0.0------------
1956-10-07 5.8 7.8 1.4 1.8 83.5- 6.0 7.0---- 1.0------------
1956-10-06 6.5 12.3 2.6 8.3 93.3- 8.0 4.0---- 15.1------------
1956-10-05 11.5 16.5 7.3 6.0 87.3- 6.7 0.7---- 5.7------------
1956-10-04 10.5 15.0 9.7 7.5 98.3- 8.0 1.3---- 13.7------------
1956-10-03 17.2 24.1 14.7 11.8 70.5- 4.0 3.3---- 2.0------------
1956-10-02 17.9 25.2 9.2 6.1 71.5- 1.0 3.0---- 0.0------------
1956-10-01 16.2 23.7 6.6 6.8 79.3- 4.3 2.7---- 0.0------------
1956-09-30 14.4 19.1 12.4 11.0 90.0- 5.3 1.3---- 0.0------------
1956-09-29 16.5 20.9 12.1 13.3 78.8- 7.0 4.7---- 0.0------------
1956-09-28 15.7 21.0 13.3 11.6 82.3- 6.0 3.7---- 0.1------------
1956-09-27 17.8 22.7 4.5 1.5 49.5- 5.7 3.0---- 0.0------------
1956-09-26 12.7 21.1 3.5 -0.8 64.0-- 3.3---- 0.0------------
1956-09-25 11.7 20.5 1.7 -0.4 74.0-- 2.7---- 0.0------------
1956-09-24 7.0 14.8 2.6 1.0 75.8-- 4.3---- 0.0------------
1956-09-23 11.1 17.4 4.1 0.7 81.0-- 5.0---- 0.0------------
1956-09-22 10.2 20.6 1.5 -0.4 80.8-- 0.0---- 0.0------------
1956-09-21 11.3 19.6 6.9 5.8 76.3-- 1.3---- 0.0------------
1956-09-20 8.4 17.2 0.8- 82.0-- 1.7---- 0.0------------
1956-09-19 6.3 14.8 0.6 -1.4 86.3- 1.0 0.3---- 0.0------------
1956-09-18 6.8 11.0 5.5 5.8 88.8-- 3.0---- 0.0------------
1956-09-17 7.8 13.7 6.2 9.0 94.3- 6.3 3.3---- 4.1------------
1956-09-16 12.6 16.7 7.0 7.7 76.5- 6.3 2.7---- 1.4------------
1956-09-15 12.4 17.1 7.4 8.0 84.0- 5.7 3.3---- 0.0------------
1956-09-14 10.0 14.2 6.0 7.3 80.8- 7.0 5.3---- 0.0------------
1956-09-13 8.9 13.5 6.8 6.1 83.3- 4.3 5.0---- 0.2------------
1956-09-12 11.6 14.9 9.6 6.1 90.3- 7.0 5.0---- 8.2------------
1956-09-11 14.9 20.7 12.2 10.3 88.8- 4.3 5.0---- 1.8------------
199.9 ms

 

Źródłem pochodzenia danych jest Instytut Meteorologii i Gospodarki Wodnej – Państwowy Instytut Badawczy. Dane Instytutu Meteorologii i Gospodarki Wodnej – Państwowego Instytutu Badawczego zostały przetworzone.

Dane źródłowe można odnaleźć na stronie https://dane.imgw.pl